• In Russia
  • List of Countries
  • For 7 days
  • Water Temperature
  • Satellite Maps
  • Weather Map
  • Weather Widgets
  • user-avatar
    Login

    Hourly Weather Khulna

    Today, 21 February, Thursday

    Time Temperature Precipitation Wind Pressure Humidity
    00:00 +24°C° 0 mm 1 mps 762 mmHg 62%
    01:00 +24°C° 0 mm 1 mps 762 mmHg 64%
    02:00 +22°C° 0 mm 0 mps 762 mmHg 66%
    03:00 +21°C° 0 mm 0 mps 762 mmHg 68%
    04:00 +21°C° 0 mm 0 mps 762 mmHg 67%
    05:00 +23°C° 0 mm 1 mps 762 mmHg 66%
    06:00 +22°C° 0 mm 1 mps 762 mmHg 64%
    07:00 +24°C° 0 mm 1 mps 762 mmHg 58%
    08:00 +26°C° 0 mm 1 mps 763 mmHg 52%
    09:00 +28°C° 0 mm 1 mps 763 mmHg 46%
    10:00 +30°C° 0 mm 1 mps 763 mmHg 39%
    11:00 +32°C° 0 mm 1 mps 763 mmHg 31%
    12:00 +35°C° 0 mm 1 mps 762 mmHg 24%
    13:00 +36°C° 0 mm 2 mps 761 mmHg 22%
    14:00 +36°C° 0 mm 3 mps 761 mmHg 21%
    15:00 +37°C° 0 mm 3 mps 760 mmHg 19%
    16:00 +35°C° 0 mm 3 mps 759 mmHg 21%
    17:00 +34°C° 0 mm 2 mps 759 mmHg 24%
    18:00 +32°C° 0 mm 2 mps 759 mmHg 26%
    19:00 +30°C° 0 mm 2 mps 759 mmHg 28%
    20:00 +29°C° 0 mm 1 mps 760 mmHg 30%
    21:00 +28°C° 0 mm 1 mps 760 mmHg 33%
    22:00 +27°C° 0 mm 1 mps 760 mmHg 39%
    23:00 +26°C° 0 mm 1 mps 760 mmHg 45%

    Tomorrow, 22 February, Friday

    Time Temperature Precipitation Wind Pressure Humidity
    00:00 +25°C° 0 mm 1 mps 760 mmHg 52%
    01:00 +25°C° 0 mm 1 mps 759 mmHg 54%
    02:00 +25°C° 0 mm 1 mps 759 mmHg 56%
    03:00 +24°C° 0 mm 1 mps 758 mmHg 58%
    04:00 +24°C° 0 mm 1 mps 758 mmHg 56%
    05:00 +24°C° 0 mm 1 mps 758 mmHg 54%
    06:00 +24°C° 0 mm 1 mps 758 mmHg 52%
    07:00 +26°C° 0 mm 1 mps 759 mmHg 46%
    08:00 +28°C° 0 mm 1 mps 760 mmHg 41%
    09:00 +30°C° 0 mm 2 mps 760 mmHg 35%
    10:00 +32°C° 0 mm 2 mps 760 mmHg 31%
    11:00 +35°C° 0 mm 3 mps 760 mmHg 27%
    12:00 +37°C° 0 mm 3 mps 759 mmHg 23%
    13:00 +37°C° 0 mm 4 mps 758 mmHg 23%
    14:00 +38°C° 0 mm 4 mps 757 mmHg 22%
    15:00 +40°C° 0 mm 4 mps 756 mmHg 21%
    16:00 +37°C° 0 mm 4 mps 756 mmHg 24%
    17:00 +36°C° 0 mm 3 mps 756 mmHg 27%
    18:00 +34°C° 0 mm 2 mps 756 mmHg 30%
    19:00 +32°C° 0 mm 1 mps 757 mmHg 32%
    20:00 +31°C° 0 mm 1 mps 757 mmHg 33%
    21:00 +28°C° 0 mm 0 mps 758 mmHg 35%
    22:00 +29°C° 0 mm 1 mps 758 mmHg 37%
    23:00 +28°C° 0 mm 1 mps 757 mmHg 40%

    Day after tomorrow, 23 February, Saturday

    Time Temperature Precipitation Wind Pressure Humidity
    00:00 +28°C° 0 mm 1 mps 757 mmHg 42%
    01:00 +27°C° 0 mm 1 mps 757 mmHg 45%
    02:00 +27°C° 0 mm 2 mps 756 mmHg 47%
    03:00 +26°C° 0 mm 2 mps 756 mmHg 50%
    04:00 +26°C° 0 mm 2 mps 756 mmHg 51%
    05:00 +26°C° 0 mm 2 mps 756 mmHg 53%
    06:00 +25°C° 0 mm 2 mps 756 mmHg 54%
    07:00 +27°C° 0 mm 2 mps 757 mmHg 49%
    08:00 +29°C° 0 mm 2 mps 758 mmHg 43%
    09:00 +31°C° 0 mm 2 mps 759 mmHg 37%
    10:00 +34°C° 0 mm 2 mps 758 mmHg 33%
    11:00 +36°C° 0 mm 3 mps 758 mmHg 29%
    12:00 +38°C° 0 mm 3 mps 757 mmHg 25%
    13:00 +38°C° 0 mm 4 mps 757 mmHg 23%
    14:00 +40°C° 0 mm 4 mps 756 mmHg 22%
    15:00 +40°C° 0 mm 4 mps 755 mmHg 21%
    16:00 +38°C° 0 mm 4 mps 755 mmHg 24%
    17:00 +36°C° 0 mm 3 mps 755 mmHg 26%
    18:00 +35°C° 0 mm 3 mps 755 mmHg 29%
    19:00 +34°C° 0 mm 2 mps 756 mmHg 30%
    20:00 +32°C° 0 mm 2 mps 756 mmHg 32%
    21:00 +30°C° 0 mm 1 mps 757 mmHg 33%
    22:00 +30°C° 0 mm 1 mps 757 mmHg 36%
    23:00 +29°C° 0 mm 1 mps 757 mmHg 39%

    24 February, Sunday

    Time Temperature Precipitation Wind Pressure Humidity
    00:00 +26°C° 0 mm 0 mps 757 mmHg 41%
    01:00 +28°C° 0 mm 1 mps 756 mmHg 42%
    02:00 +28°C° 0 mm 1 mps 756 mmHg 42%
    03:00 +27°C° 0 mm 1 mps 756 mmHg 42%
    04:00 +27°C° 0 mm 2 mps 756 mmHg 42%
    05:00 +26°C° 0 mm 2 mps 756 mmHg 42%
    06:00 +26°C° 0 mm 2 mps 757 mmHg 41%
    07:00 +27°C° 0 mm 2 mps 757 mmHg 37%
    08:00 +28°C° 0 mm 2 mps 758 mmHg 34%
    09:00 +30°C° 0 mm 2 mps 759 mmHg 30%
    10:00 +31°C° 0 mm 2 mps 758 mmHg 29%
    11:00 +32°C° 0 mm 2 mps 758 mmHg 27%
    12:00 +34°C° 0 mm 2 mps 758 mmHg 26%
    13:00 +35°C° 0 mm 2 mps 757 mmHg 26%
    14:00 +36°C° 0 mm 2 mps 756 mmHg 25%
    15:00 +37°C° 0 mm 2 mps 755 mmHg 25%
    16:00 +35°C° 0.1 mm 2 mps 755 mmHg 28%
    17:00 +34°C° 0.1 mm 2 mps 755 mmHg 32%
    18:00 +32°C° 0.1 mm 2 mps 755 mmHg 35%
    19:00 +30°C° 0.3 mm 2 mps 755 mmHg 39%
    20:00 +29°C° 0.3 mm 2 mps 756 mmHg 43%
    21:00 +28°C° 0.3 mm 2 mps 757 mmHg 47%
    22:00 +27°C° 0.5 mm 3 mps 757 mmHg 54%
    23:00 +27°C° 0.5 mm 4 mps 758 mmHg 60%

    25 February, Monday

    Time Temperature Precipitation Wind Pressure Humidity
    00:00 +26°C° 0.5 mm 5 mps 758 mmHg 66%
    01:00 +25°C° 1 mm 4 mps 758 mmHg 67%
    02:00 +23°C° 1 mm 4 mps 757 mmHg 67%
    03:00 +22°C° 1 mm 3 mps 757 mmHg 68%
    04:00 +22°C° 0.2 mm 3 mps 757 mmHg 67%
    05:00 +22°C° 0.2 mm 3 mps 757 mmHg 66%
    06:00 +23°C° 0.2 mm 2 mps 757 mmHg 65%
    07:00 +24°C° 0.1 mm 2 mps 758 mmHg 64%
    08:00 +25°C° 0.1 mm 2 mps 759 mmHg 63%
    09:00 +25°C° 0.1 mm 1 mps 759 mmHg 62%
    10:00 +26°C° 0.1 mm 1 mps 759 mmHg 60%
    11:00 +27°C° 0.1 mm 1 mps 759 mmHg 58%
    12:00 +28°C° 0.1 mm 1 mps 759 mmHg 55%
    13:00 +28°C° 0.1 mm 1 mps 758 mmHg 54%
    14:00 +29°C° 0.1 mm 2 mps 757 mmHg 53%
    15:00 +29°C° 0.1 mm 2 mps 756 mmHg 52%
    16:00 +27°C° 11.2 mm 4 mps 756 mmHg 63%
    17:00 +25°C° 11.2 mm 5 mps 756 mmHg 74%
    18:00 +22°C° 11.2 mm 6 mps 757 mmHg 85%
    19:00 +21°C° 4.5 mm 5 mps 758 mmHg 84%
    20:00 +21°C° 4.5 mm 5 mps 759 mmHg 82%
    21:00 +20°C° 4.5 mm 4 mps 759 mmHg 80%
    22:00 +20°C° 2 mm 4 mps 759 mmHg 81%
    23:00 +20°C° 2 mm 4 mps 759 mmHg 82%

    26 February, Tuesday

    Time Temperature Precipitation Wind Pressure Humidity
    00:00 +19°C° 2 mm 3 mps 759 mmHg 83%
    01:00 +19°C° 1.1 mm 3 mps 758 mmHg 84%
    02:00 +19°C° 1.1 mm 3 mps 758 mmHg 84%
    03:00 +19°C° 1.1 mm 2 mps 758 mmHg 84%
    04:00 +18°C° 1.6 mm 2 mps 758 mmHg 85%
    05:00 +18°C° 1.6 mm 2 mps 758 mmHg 86%
    06:00 +18°C° 1.6 mm 2 mps 758 mmHg 86%
    07:00 +19°C° 0.4 mm 2 mps 758 mmHg 83%
    08:00 +20°C° 0.4 mm 2 mps 759 mmHg 79%
    09:00 +20°C° 0.4 mm 2 mps 760 mmHg 76%
    10:00 +20°C° 0.8 mm 2 mps 759 mmHg 76%
    11:00 +21°C° 0.8 mm 2 mps 759 mmHg 77%
    12:00 +21°C° 0.8 mm 2 mps 759 mmHg 77%
    13:00 +21°C° 0.3 mm 3 mps 758 mmHg 78%
    14:00 +22°C° 0.3 mm 3 mps 758 mmHg 79%
    15:00 +22°C° 0.3 mm 3 mps 757 mmHg 79%
    16:00 +21°C° 0.8 mm 3 mps 757 mmHg 83%
    17:00 +21°C° 0.8 mm 2 mps 757 mmHg 86%
    18:00 +20°C° 0.8 mm 2 mps 757 mmHg 90%
    19:00 +20°C° 1.1 mm 3 mps 757 mmHg 90%
    20:00 +20°C° 1.1 mm 3 mps 757 mmHg 90%
    21:00 +20°C° 1.1 mm 4 mps 757 mmHg 90%
    22:00 +20°C° 0.7 mm 4 mps 757 mmHg 90%
    23:00 +20°C° 0.7 mm 4 mps 756 mmHg 90%
    Show more